Tracking 35237 objects as of 6-Sep-2026
HD Live streaming from Space Station
objects crossing your sky now

COSMOS 1781 DEB


COSMOS 1781 DEB is no longer on orbit


NORAD ID: 16990
Int'l Code: 1986-072F
Launch date: September 17, 1986
Source: Commonwealth of Independent States (former USSR) (CIS)
Launch site: TYURATAM MISSILE AND SPACE COMPLEX (TTMTR)
Decay date: 1987-05-19

Note: This is SATELLITE DEBRIS
Your satellite tracking list
Your tracking list is empty




NASA's NSSDC Master Catalog

Two Line Element Set (TLE):
1 16990U 86072  F 87139.74871143  .24645958 +15247-4 +44980-2 0  9994
2 16990 070.3242 223.4322 0018236 284.4571 076.0624 16.31597224037885
Source of the keplerian elements: AFSPC